Tracking 20719 objects as of 25-May-2020
HD Live streaming from Space Station
objects crossing your sky now

IRIDIUM 33 DEB

Track IRIDIUM 33 DEB now!
10-day predictions


NORAD ID: 38228
Int'l Code: 1997-051ZC
Perigee: 774.4 km
Apogee: 868.3 km
Inclination: 86.3 °
Period: 101.2 minutes
Semi major axis: 7192 km
RCS: 0.0068 m2 (small)
Launch date: September 14, 1997
Source: United States (US)
Launch site: TYURATAM MISSILE AND SPACE COMPLEX (TTMTR)

Note: This is SATELLITE DEBRIS
aabbcc
Your satellite tracking list
Your tracking list is empty




NASA's NSSDC Master Catalog

Two Line Element Set (TLE):
1 38228U 97051ZC  20139.89049606  .00000247  00000-0  98824-4 0  9990
2 38228  86.3002 188.6966 0065255 234.5116 301.1475 14.23302653561959
Source of the keplerian elements: AFSPC